TimeCST,TemperatureF,Dew PointF,Humidity,Sea Level PressureIn,VisibilityMPH,Wind Direction,Wind SpeedMPH,Gust SpeedMPH,PrecipitationIn,Events,Conditions,WindDirDegrees,DateUTC
12:31 AM,60.8,59.0,94,29.83,9.0,SW,5.8,-,N/A,,Scattered Clouds,230,2012-12-18 06:31:00
12:53 AM,60.1,59.0,96,29.84,8.0,West,6.9,-,N/A,,Partly Cloudy,260,2012-12-18 06:53:00
1:53 AM,59.0,57.9,96,29.86,8.0,WSW,5.8,-,N/A,,Clear,250,2012-12-18 07:53:00
2:53 AM,57.0,57.0,100,29.86,7.0,WSW,5.8,-,N/A,,Partly Cloudy,250,2012-12-18 08:53:00
3:34 AM,57.2,57.2,100,29.87,7.0,West,6.9,-,N/A,,Mostly Cloudy,270,2012-12-18 09:34:00
3:53 AM,57.0,55.9,96,29.87,8.0,West,5.8,-,N/A,,Mostly Cloudy,280,2012-12-18 09:53:00
4:53 AM,57.0,55.0,93,29.90,9.0,WNW,4.6,-,N/A,,Mostly Cloudy,290,2012-12-18 10:53:00
5:02 AM,55.4,55.4,100,29.90,8.0,WNW,3.5,-,N/A,,Scattered Clouds,290,2012-12-18 11:02:00
5:53 AM,54.0,54.0,100,29.92,4.0,West,3.5,-,N/A,,Clear,270,2012-12-18 11:53:00
6:08 AM,53.6,53.6,100,29.93,1.0,Calm,Calm,-,N/A,,Mist,0,2012-12-18 12:08:00
6:17 AM,53.6,53.6,100,29.93,0.8,Calm,Calm,-,N/A,,Mist,0,2012-12-18 12:17:00
6:53 AM,51.1,51.1,100,29.95,0.2,West,3.5,-,N/A,Fog,Fog,270,2012-12-18 12:53:00
7:31 AM,53.6,53.6,100,29.97,1.2,West,4.6,-,N/A,,Partly Cloudy,270,2012-12-18 13:31:00
7:37 AM,53.6,53.6,100,29.98,3.0,West,3.5,-,N/A,,Partly Cloudy,260,2012-12-18 13:37:00
7:53 AM,55.0,55.0,100,29.98,4.0,West,4.6,-,N/A,,Clear,280,2012-12-18 13:53:00
8:53 AM,59.0,54.0,83,30.00,10.0,NW,6.9,-,N/A,,Clear,320,2012-12-18 14:53:00
9:53 AM,61.0,48.9,64,30.02,10.0,NNW,6.9,-,0.01,,Clear,330,2012-12-18 15:53:00
10:53 AM,64.0,44.1,48,30.01,10.0,North,6.9,-,N/A,,Clear,360,2012-12-18 16:53:00
11:53 AM,66.0,39.9,38,29.99,10.0,Variable,4.6,-,N/A,,Clear,0,2012-12-18 17:53:00
12:53 PM,68.0,37.0,32,29.98,10.0,NW,4.6,-,N/A,,Clear,320,2012-12-18 18:53:00
1:53 PM,68.0,35.1,30,29.97,10.0,NNW,4.6,-,N/A,,Clear,340,2012-12-18 19:53:00
2:53 PM,69.1,35.1,29,29.97,10.0,NW,5.8,-,N/A,,Clear,320,2012-12-18 20:53:00
3:53 PM,68.0,35.1,30,29.99,10.0,North,3.5,-,N/A,,Clear,350,2012-12-18 21:53:00
4:53 PM,57.9,45.0,62,29.99,10.0,Calm,Calm,-,N/A,,Clear,0,2012-12-18 22:53:00
5:53 PM,52.0,43.0,71,30.00,10.0,Calm,Calm,-,N/A,,Clear,0,2012-12-18 23:53:00
6:53 PM,50.0,44.1,80,30.01,10.0,Calm,Calm,-,N/A,,Clear,0,2012-12-19 00:53:00
7:53 PM,46.9,43.0,86,30.03,10.0,SSW,3.5,-,N/A,,Clear,200,2012-12-19 01:53:00
8:53 PM,46.0,42.1,86,30.04,10.0,Calm,Calm,-,N/A,,Clear,0,2012-12-19 02:53:00
9:53 PM,44.1,42.1,93,30.05,10.0,Calm,Calm,-,N/A,,Clear,0,2012-12-19 03:53:00
10:53 PM,43.0,39.9,89,30.05,10.0,Calm,Calm,-,N/A,,Clear,0,2012-12-19 04:53:00
11:53 PM,41.0,39.0,93,30.06,10.0,Calm,Calm,-,N/A,,Clear,0,2012-12-19 05:53:00